Regional Weather Roundup
Issued by NWS Goodland, KS

Home | Current Version | Previous Version | Graphics & Text | Print | Product List | Glossary On
Versions: 1 2 3 4 5 6 7 8 9 10 11 12 13 14 15 16 17 18 19 20 21 22 23 24 25 26 27 28 29 30 31 32 33 34 35 36 37 38 39 40 41 42 43 44 45 46 47 48 49 50
000
ASUS43 KGLD 261308
RWRGLD

GOODLAND FORECAST AREA HOURLY WEATHER ROUNDUP
NATIONAL WEATHER SERVICE GOODLAND KS
700 AM MDT SUN MAR 26 2017

...OFFICIAL OBSERVATIONS...

CITY           SKY/WX    TMP DP  RH WIND       PRES   REMARKS
GOODLAND KS    FOG       37  37 100 E8        29.80F VSB 1/4
HILL CITY KS   FOG       41  41 100 E6        29.88S VSB 1/2
IMPERIAL NEB   FOG       39  39 100 SE8       29.85R VSB 3/4
MCCOOK NEB     CLOUDY    40  40 100 SE5       29.87R FOG
AKRON CO       CLOUDY    42  34  73 S6        29.80R
BURLINGTON CO  FOG       40  39  97 E10       29.79F VSB 1
LIMON CO       CLOUDY    39  33  79 CALM      29.79R
$$

...UNOFFICIAL OBSERVATIONS...

CITY           SKY/WX    TMP DP  RH WIND       PRES   REMARKS
LENORA KS        N/A     39  32  76 CALM        N/A
NORTON KS      CLOUDY    39  36  87 SE3       29.88
SHARON SPRINGS   N/A     37  35  94 NE12        N/A
TRENTON NEB      N/A     38  32  79 CALM        N/A
YUMA CO        CLOUDY    37  37 100 CALM      29.81S
$$



USA.gov is the U.S. government's official web portal to all federal, state and local government web resources and services.